Location: Unspecified
(0.0000°N, 0.0000°E)
Time: 02:14:29
(UTC+00:00)

ESSA 4 - Pass Details

Date: 05 November 2024
Orbit: 1326 x 1439 km, 102.1° (Epoch: 03 December)

Event Time Altitude Azimuth Distance (km) Brightness Sun altitude
Rises 02:59:42 0° 137° (SE) 4,335 12.6 -39.1°
Reaches altitude 10° 03:03:01 10° 125° (SE) 3,357 12.0 -38.3°
Maximum altitude 03:09:00 25° 73° (ENE) 2,405 10.9 -36.9°
Drops below altitude 10° 03:14:58 10° 22° (NNE) 3,361 11.3 -35.5°
Sets 03:18:15 0° 9° (N) 4,341 11.8 -34.8°
